Catania, Italy

3:45 AM CET on February 08, 2016 (GMT +0100)
Fontanarossa

Weather History for LICC - December, 2012

Change the Weather History Date:

Saturday, December 15, 2012

  Actual Average Record
Temperature  
Mean Temperature 54 °F -  
Max Temperature 66 °F 61 °F 69 °F (2000)
Min Temperature 42 °F 43 °F 32 °F (2007)
Degree Days  
Heating Degree Days 11    
Growing Degree Days 4 (Base 50)    
Moisture  
Dew Point 47 °F    
Average Humidity 81    
Maximum Humidity 100    
Minimum Humidity 49    
Precipitation  
Precipitation 0.00 in 0.11 in - ()
Sea Level Pressure  
Sea Level Pressure 30.19 in    
Wind  
Wind Speed 6 mph ()    
Max Wind Speed 13 mph    
Max Gust Speed -    
Visibility 5.0 miles    
Events Fog    
Averages and records for this station are not official NWS values.
T = Trace of Precipitation, MM = Missing Value Source: Averaged Metar Reports

Daily Weather History Graph

Daily Weather History Graph

Search for Another Location

Airport or City:

Trip Planner

Search our weather history database for the weather conditions in past years. The results will help you decide how hot, cold, wet, or windy it might be!

Date:

Astronomy

Dec. 15, 2012 Rise Set
Actual Time 7:07 AM CET 4:42 PM CET
Civil Twilight 6:38 AM CET 5:12 PM CET
Nautical Twilight 6:05 AM CET 5:44 PM CET
Astronomical Twilight 5:33 AM CET 6:16 PM CET
Moon 8:48 AM CET (12/15) 7:24 PM CET (12/15)
Length of Visible Light 10h 34m
Length of Day
9h 35m
Waxing Crescent, 7% of the Moon is Illuminated
Dec 15
Waxing Crescent
Dec 20
First Quarter
Dec 28
Full
Jan 5
Last Quarter
Jan 11
New

Hourly Weather History & Observations

Time (CET) Temp. Windchill Dew Point Humidity Pressure Visibility Wind Dir Wind Speed Gust Speed Precip Events Conditions
12:20 AM 44.6 °F 40.7 °F 42.8 °F 93% 30.21 in 3.7 mi WSW 6.9 mph - N/A   Scattered Clouds
12:50 AM 44.6 °F 40.7 °F 41.0 °F 87% 30.21 in 3.7 mi SW 6.9 mph - N/A   Scattered Clouds
1:20 AM 42.8 °F 38.6 °F 41.0 °F 93% 30.21 in 3.7 mi WSW 6.9 mph - N/A   Scattered Clouds
1:50 AM 44.6 °F 40.7 °F 41.0 °F 87% 30.21 in 4.3 mi WSW 6.9 mph - N/A   Scattered Clouds
2:20 AM 44.6 °F 40.2 °F 42.8 °F 93% 30.21 in 6.2 mi West 8.1 mph - N/A   Partly Cloudy
2:50 AM 44.6 °F 40.2 °F 41.0 °F 87% 30.21 in 6.2 mi WSW 8.1 mph - N/A   Partly Cloudy
3:20 AM 44.6 °F 39.7 °F 41.0 °F 87% 30.21 in 6.2 mi SW 9.2 mph - N/A   Partly Cloudy
3:50 AM 42.8 °F 37.5 °F 39.2 °F 87% 30.21 in 6.2 mi West 9.2 mph - N/A   Partly Cloudy
4:20 AM 46.4 °F 41.5 °F 44.6 °F 93% 30.21 in 6.2 mi West 10.4 mph - N/A   Partly Cloudy
4:50 AM 46.4 °F 40.7 °F 42.8 °F 87% 30.21 in 6.2 mi WSW 12.7 mph - N/A   Partly Cloudy
5:20 AM 46.4 °F 41.5 °F 44.6 °F 93% 30.21 in 0.2 mi WSW 10.4 mph - N/A Fog Fog
5:50 AM 46.4 °F 42.9 °F 44.6 °F 93% 30.24 in 0.1 mi West 6.9 mph - N/A Fog Fog
6:20 AM 46.4 °F 42.9 °F 44.6 °F 93% 30.24 in 0.2 mi WSW 6.9 mph - N/A Fog Fog
6:50 AM 42.8 °F 38.6 °F 42.8 °F 100% 30.24 in 0.5 mi WSW 6.9 mph - N/A Fog Fog
7:20 AM 42.8 °F 38.0 °F 41.0 °F 93% 30.24 in 1.9 mi WSW 8.1 mph - N/A   Scattered Clouds
7:50 AM 42.8 °F 38.0 °F 41.0 °F 93% 30.24 in 2.5 mi WSW 8.1 mph - N/A   Scattered Clouds
8:20 AM 42.8 °F 38.0 °F 41.0 °F 93% 30.24 in 4.3 mi WSW 8.1 mph - N/A   Scattered Clouds
8:50 AM 44.6 °F 39.7 °F 42.8 °F 93% 30.24 in 4.3 mi WSW 9.2 mph - N/A   Scattered Clouds
9:20 AM 46.4 °F 41.9 °F 44.6 °F 93% 30.27 in 4.3 mi WSW 9.2 mph - N/A   Scattered Clouds
9:50 AM 50.0 °F - 46.4 °F 87% 30.27 in 5.0 mi WSW 9.2 mph - N/A   Scattered Clouds
10:20 AM 53.6 °F - 46.4 °F 77% 30.24 in - SW 8.1 mph - N/A   Clear
10:50 AM 57.2 °F - 48.2 °F 72% 30.24 in - SW 8.1 mph - N/A   Clear
11:20 AM 59.0 °F - 48.2 °F 67% 30.21 in - WSW 6.9 mph - N/A   Clear
11:50 AM 60.8 °F - 48.2 °F 63% 30.21 in - WSW 6.9 mph - N/A   Clear
12:20 PM 62.6 °F - 48.2 °F 59% 30.21 in - SW 5.8 mph - N/A   Clear
12:50 PM 64.4 °F - 48.2 °F 56% 30.18 in - SSW 4.6 mph - N/A   Clear
1:20 PM 66.2 °F - 46.4 °F 49% 30.18 in - SSW 4.6 mph - N/A   Clear
1:50 PM 66.2 °F - 46.4 °F 49% 30.18 in 6.2 mi SW 4.6 mph - N/A   Partly Cloudy
2:20 PM 66.2 °F - 48.2 °F 52% 30.15 in 6.2 mi WSW 4.6 mph - N/A   Partly Cloudy
2:50 PM 64.4 °F - 48.2 °F 56% 30.15 in 6.2 mi SW 4.6 mph - N/A   Partly Cloudy
3:20 PM 64.4 °F - 50.0 °F 59% 30.15 in 6.2 mi West 4.6 mph - N/A   Partly Cloudy
3:50 PM 60.8 °F - 50.0 °F 68% 30.18 in 6.2 mi ENE 3.5 mph - N/A   Partly Cloudy
4:20 PM 59.0 °F - 51.8 °F 77% 30.18 in 6.2 mi ENE 6.9 mph - N/A   Partly Cloudy
4:50 PM 57.2 °F - 51.8 °F 82% 30.18 in 6.2 mi NE 5.8 mph - N/A   Partly Cloudy
5:20 PM 55.4 °F - 50.0 °F 82% 30.15 in 6.2 mi East 4.6 mph - N/A   Partly Cloudy
5:50 PM 55.4 °F - 51.8 °F 88% 30.15 in 6.2 mi NNE 3.5 mph - N/A   Partly Cloudy
6:20 PM 57.2 °F - 51.8 °F 82% 30.15 in 6.2 mi NNE 3.5 mph - N/A   Partly Cloudy
6:50 PM 57.2 °F - 51.8 °F 82% 30.18 in 6.2 mi NNE 3.5 mph - N/A   Partly Cloudy
7:20 PM 55.4 °F - 50.0 °F 82% 30.15 in 6.2 mi Variable 1.2 mph - N/A   Partly Cloudy
7:50 PM 53.6 °F - 50.0 °F 88% 30.15 in 6.2 mi West 3.5 mph - N/A   Partly Cloudy
8:20 PM 53.6 °F - 50.0 °F 88% 30.15 in 6.2 mi West 3.5 mph - N/A   Partly Cloudy
8:50 PM 55.4 °F - 50.0 °F 82% 30.15 in 6.2 mi WSW 6.9 mph - N/A   Scattered Clouds
9:20 PM 55.4 °F - 50.0 °F 82% 30.15 in 6.2 mi WSW 3.5 mph - N/A   Scattered Clouds
9:50 PM 55.4 °F - 50.0 °F 82% 30.15 in 6.2 mi WSW 8.1 mph - N/A   Scattered Clouds
10:20 PM 55.4 °F - 50.0 °F 82% 30.15 in 6.2 mi WSW 6.9 mph - N/A   Scattered Clouds
10:50 PM 55.4 °F - 50.0 °F 82% 30.15 in 6.2 mi West 6.9 mph - N/A   Scattered Clouds
11:20 PM 55.4 °F - 48.2 °F 77% 30.15 in 6.2 mi West 5.8 mph - N/A   Scattered Clouds
11:50 PM 53.6 °F - 48.2 °F 82% 30.15 in 6.2 mi West 4.6 mph - N/A   Scattered Clouds